軌道要素
Epoch 2019 June 6.0 TT = JDT 2458640.5
T 2019 June 6.92023 TT Rudenko
q 3.0496472 (2000.0) P Q
n 0.10218484 Peri. 90.06879 -0.72177807 +0.68418103
a 4.5311844 Node 133.10315 -0.67823496 -0.66906247
e 0.3269647 Incl. 8.23352 -0.13796289 -0.29026148
P 9.65
From 245 observations 2009 Feb. 26-2019 July 3, mean residual 0".5.
|